Location: Potomac
(46.8816°N, 113.5795°W)
Time: 22:20:02
(UTC+00:00)

JY1SAT - Pass Details

Date: 04 July 2022
Orbit: 564 x 586 km, 97.6° (Epoch: 18 August)

Event Time Altitude Azimuth Distance (km) Brightness Sun altitude
Exits shadow 05:59:39 10° 219° (SW) 1,933 ? -16.7°
Reaches altitude 10° 05:59:43 10° 219° (SW) 1,910 ? -16.7°
Maximum altitude 06:02:49 20° 268° (W) 1,374 ? -17.0°
Drops below altitude 10° 06:05:56 10° 316° (NW) 1,920 ? -17.2°
Sets 06:08:35 0° 334° (NNW) 2,824 ? -17.3°
